This is the latest recevied weather packets stored in our database for station/object S57ZT-10. If no packets are shown the sender has not sent any weather packets the latest 10 day(s).
| Time | Temp. | Humidity | Pressure | Rain* | Wind** | Luminosity | Snow |
|---|---|---|---|---|---|---|---|
| 1778101440 | 20° C | 46% | 1012.6 hPa | - | - | - | - |
| 1778100564 | 20° C | 46% | 1012.7 hPa | - | - | - | - |
| 1778099639 | 20° C | 46% | 1012.6 hPa | - | - | - | - |
| 1778098738 | 20° C | 46% | 1012.7 hPa | - | - | - | - |
| 1778097838 | 20° C | 46% | 1012.5 hPa | - | - | - | - |
| 1778096936 | 20° C | 45% | 1012.4 hPa | - | - | - | - |
| 1778096035 | 20° C | 45% | 1012.1 hPa | - | - | - | - |
| 1778095138 | 20.56° C | 45% | 1012.1 hPa | - | - | - | - |
| 1778094235 | 20.56° C | 45% | 1011.9 hPa | - | - | - | - |
| 1778093335 | 20.56° C | 44% | 1011.8 hPa | - | - | - | - |
| 1778090638 | 21.11° C | 44% | 1011.6 hPa | - | - | - | - |
| 1778089739 | 21.11° C | 44% | 1011.6 hPa | - | - | - | - |
| 1778088836 | 21.11° C | 45% | 1011.5 hPa | - | - | - | - |
| 1778087938 | 21.67° C | 44% | 1011.5 hPa | - | - | - | - |
| 1778086161 | 21.67° C | 44% | 1011.6 hPa | - | - | - | - |
| 1778085236 | 21.67° C | 44% | 1011.8 hPa | - | - | - | - |
| 1778083517 | 22.22° C | 44% | 1012.2 hPa | - | - | - | - |
| 1778083461 | 22.22° C | 44% | 1012.2 hPa | - | - | - | - |
| 1778082535 | 22.22° C | 44% | 1012.2 hPa | - | - | - | - |
| 1778081636 | 22.78° C | 43% | 1012.2 hPa | - | - | - | - |
| 1778080735 | 22.78° C | 42% | 1012.1 hPa | - | - | - | - |
| 1778079880 | 23.33° C | 42% | 1012.2 hPa | - | - | - | - |
| 1778079840 | 23.33° C | 42% | 1012.2 hPa | - | - | - | - |
| 1778078026 | 22.78° C | 43% | 1012.3 hPa | - | - | - | - |
| 1778077134 | 22.78° C | 42% | 1012.3 hPa | - | - | - | - |
* Rain since midnight (hover to see other rain measurements)
** Current wind speed in m/s (hover to see current wind gust speed)